Time,TemperatureF,DewpointF,PressureIn,WindDirection,WindDirectionDegrees,WindSpeedMPH,WindSpeedGustMPH,Humidity,HourlyPrecipIn,Conditions,Clouds,dailyrainin,SoftwareType,DateUTC
2013-06-23 00:02:00,67.2,64.0,30.10,South,188,0.0,0.0,89,0.00,,,0.00,weatherlink.com 1.10,2013-06-23 04:02:00,
2013-06-23 00:17:00,66.1,64.0,30.11,South,188,0.0,0.0,92,0.01,,,0.01,weatherlink.com 1.10,2013-06-23 04:17:00,
2013-06-23 00:32:00,65.7,64.0,30.11,South,188,0.0,0.0,94,0.01,,,0.01,weatherlink.com 1.10,2013-06-23 04:32:00,
2013-06-23 00:47:00,65.4,64.0,30.10,South,188,0.0,0.0,95,0.02,,,0.02,weatherlink.com 1.10,2013-06-23 04:47:00,
2013-06-23 01:02:00,65.2,64.0,30.10,South,189,0.0,0.0,96,0.02,,,0.02,weatherlink.com 1.10,2013-06-23 05:02:00,
2013-06-23 01:17:00,65.1,64.0,30.10,South,188,0.0,0.0,97,0.01,,,0.02,weatherlink.com 1.10,2013-06-23 05:17:00,
2013-06-23 01:32:00,64.9,64.0,30.10,South,188,0.0,0.0,97,0.01,,,0.02,weatherlink.com 1.10,2013-06-23 05:32:00,
2013-06-23 01:47:00,64.8,64.0,30.10,South,188,0.0,0.0,97,0.00,,,0.02,weatherlink.com 1.10,2013-06-23 05:47:00,
2013-06-23 02:02:00,64.6,64.0,30.09,South,188,0.0,0.0,97,0.00,,,0.02,weatherlink.com 1.10,2013-06-23 06:02:00,
2013-06-23 02:17:00,64.5,64.0,30.09,South,188,0.0,0.0,97,0.00,,,0.02,weatherlink.com 1.10,2013-06-23 06:17:00,
2013-06-23 02:32:00,64.3,64.0,30.09,South,188,0.0,0.0,97,0.00,,,0.02,weatherlink.com 1.10,2013-06-23 06:32:00,
2013-06-23 02:47:00,64.2,63.0,30.08,South,189,0.0,0.0,97,0.00,,,0.02,weatherlink.com 1.10,2013-06-23 06:47:00,
2013-06-23 03:02:00,64.2,64.0,30.08,South,188,0.0,0.0,98,0.00,,,0.02,weatherlink.com 1.10,2013-06-23 07:02:00,
2013-06-23 03:17:00,64.1,64.0,30.08,South,188,0.0,0.0,98,0.00,,,0.02,weatherlink.com 1.10,2013-06-23 07:17:00,
2013-06-23 03:32:00,64.0,64.0,30.07,South,188,0.0,0.0,98,0.00,,,0.02,weatherlink.com 1.10,2013-06-23 07:32:00,
2013-06-23 03:47:00,63.7,63.0,30.07,South,189,0.0,0.0,98,0.00,,,0.02,weatherlink.com 1.10,2013-06-23 07:47:00,
2013-06-23 04:02:00,63.4,63.0,30.06,South,188,0.0,0.0,98,0.00,,,0.02,weatherlink.com 1.10,2013-06-23 08:02:00,
2013-06-23 04:17:00,63.2,63.0,30.07,South,190,0.0,0.0,98,0.00,,,0.02,weatherlink.com 1.10,2013-06-23 08:17:00,
2013-06-23 04:32:00,63.1,63.0,30.06,South,190,0.0,0.0,98,0.00,,,0.02,weatherlink.com 1.10,2013-06-23 08:32:00,
2013-06-23 04:47:00,63.0,63.0,30.07,South,190,0.0,0.0,98,0.00,,,0.02,weatherlink.com 1.10,2013-06-23 08:47:00,
2013-06-23 05:02:00,62.9,62.0,30.06,South,190,0.0,0.0,98,0.00,,,0.02,weatherlink.com 1.10,2013-06-23 09:02:00,
2013-06-23 05:17:00,62.8,62.0,30.06,South,190,0.0,0.0,98,0.00,,,0.02,weatherlink.com 1.10,2013-06-23 09:17:00,
2013-06-23 05:32:00,63.0,63.0,30.06,South,190,0.0,1.0,98,0.00,,,0.02,weatherlink.com 1.10,2013-06-23 09:32:00,
2013-06-23 05:47:00,63.2,63.0,30.06,South,190,0.0,0.0,98,0.00,,,0.02,weatherlink.com 1.10,2013-06-23 09:47:00,
2013-06-23 06:02:00,63.3,63.0,30.07,South,190,0.0,0.0,98,0.00,,,0.02,weatherlink.com 1.10,2013-06-23 10:02:00,
2013-06-23 06:17:00,63.5,63.0,30.07,South,190,0.0,0.0,98,0.00,,,0.02,weatherlink.com 1.10,2013-06-23 10:17:00,
2013-06-23 06:32:00,63.8,63.0,30.07,South,190,0.0,0.0,98,0.00,,,0.02,weatherlink.com 1.10,2013-06-23 10:32:00,
2013-06-23 06:47:00,64.1,64.0,30.07,South,190,0.0,0.0,98,0.00,,,0.02,weatherlink.com 1.10,2013-06-23 10:47:00,
2013-06-23 07:02:00,64.3,64.0,30.08,South,190,0.0,0.0,97,0.00,,,0.02,weatherlink.com 1.10,2013-06-23 11:02:00,
2013-06-23 07:17:00,64.7,64.0,30.08,SSE,165,0.0,1.0,96,0.00,,,0.02,weatherlink.com 1.10,2013-06-23 11:17:00,
2013-06-23 07:32:00,65.0,64.0,30.08,SSE,165,0.0,0.0,96,0.00,,,0.02,weatherlink.com 1.10,2013-06-23 11:32:00,
2013-06-23 07:47:00,65.6,65.0,30.09,SSE,165,0.0,0.0,96,0.00,,,0.02,weatherlink.com 1.10,2013-06-23 11:47:00,
2013-06-23 08:02:00,66.5,65.0,30.09,SSE,165,0.0,0.0,95,0.00,,,0.02,weatherlink.com 1.10,2013-06-23 12:02:00,
2013-06-23 08:17:00,67.0,65.0,30.09,SSE,165,0.0,0.0,94,0.00,,,0.02,weatherlink.com 1.10,2013-06-23 12:17:00,
2013-06-23 08:32:00,67.3,66.0,30.09,SE,136,0.0,1.0,94,0.00,,,0.02,weatherlink.com 1.10,2013-06-23 12:32:00,
2013-06-23 08:47:00,67.3,66.0,30.09,SE,138,0.0,1.0,94,0.00,,,0.02,weatherlink.com 1.10,2013-06-23 12:47:00,
2013-06-23 09:02:00,68.4,66.0,30.08,SSE,156,0.0,2.0,92,0.00,,,0.02,weatherlink.com 1.10,2013-06-23 13:02:00,
2013-06-23 09:17:00,69.0,66.0,30.08,SSE,158,0.0,1.0,91,0.00,,,0.02,weatherlink.com 1.10,2013-06-23 13:17:00,
2013-06-23 09:32:00,69.0,67.0,30.07,South,174,0.0,1.0,92,0.00,,,0.02,weatherlink.com 1.10,2013-06-23 13:32:00,
2013-06-23 09:47:00,70.0,67.0,30.07,SSE,155,0.0,2.0,90,0.00,,,0.02,weatherlink.com 1.10,2013-06-23 13:47:00,
2013-06-23 10:17:00,72.7,68.0,30.06,SSE,165,0.0,2.0,84,0.00,,,0.02,weatherlink.com 1.10,2013-06-23 14:17:00,
2013-06-23 10:32:00,73.5,68.0,30.07,SSE,148,0.0,1.0,83,0.00,,,0.02,weatherlink.com 1.10,2013-06-23 14:32:00,
2013-06-23 10:47:00,72.7,69.0,30.06,SSE,153,0.0,0.0,87,0.00,,,0.02,weatherlink.com 1.10,2013-06-23 14:47:00,
2013-06-23 11:17:00,72.1,69.0,30.07,SSE,153,0.0,1.0,90,0.00,,,0.02,weatherlink.com 1.10,2013-06-23 15:17:00,
2013-06-23 11:47:00,72.3,69.0,30.05,SSE,155,0.0,1.0,88,0.00,,,0.02,weatherlink.com 1.10,2013-06-23 15:47:00,
2013-06-23 12:02:00,72.6,69.0,30.05,SSE,167,0.0,1.0,87,0.00,,,0.02,weatherlink.com 1.10,2013-06-23 16:02:00,
2013-06-23 12:17:00,73.7,70.0,30.04,SSE,167,0.0,1.0,87,0.00,,,0.02,weatherlink.com 1.10,2013-06-23 16:17:00,
2013-06-23 12:32:00,74.2,70.0,30.04,SSE,159,0.0,1.0,87,0.00,,,0.02,weatherlink.com 1.10,2013-06-23 16:32:00,
2013-06-23 12:47:00,74.6,71.0,30.03,SE,145,0.0,1.0,87,0.00,,,0.02,weatherlink.com 1.10,2013-06-23 16:47:00,
2013-06-23 13:03:00,76.7,71.0,30.02,WSW,238,0.0,1.0,83,0.00,,,0.02,weatherlink.com 1.10,2013-06-23 17:03:00,
2013-06-23 13:18:00,78.9,72.0,30.02,SSW,200,1.0,2.0,79,0.00,,,0.02,weatherlink.com 1.10,2013-06-23 17:18:00,
2013-06-23 13:33:00,79.0,72.0,30.01,SSE,167,0.0,3.0,79,0.00,,,0.02,weatherlink.com 1.10,2013-06-23 17:33:00,
2013-06-23 13:48:00,80.1,72.0,30.01,South,184,0.0,3.0,77,0.00,,,0.02,weatherlink.com 1.10,2013-06-23 17:48:00,
2013-06-23 14:03:00,81.6,73.0,30.01,SE,129,1.0,1.0,75,0.00,,,0.02,weatherlink.com 1.10,2013-06-23 18:03:00,
2013-06-23 14:18:00,83.2,74.0,29.99,SSW,197,0.0,2.0,73,0.00,,,0.02,weatherlink.com 1.10,2013-06-23 18:18:00,
2013-06-23 14:33:00,84.3,74.0,29.99,ESE,112,0.0,2.0,72,0.00,,,0.02,weatherlink.com 1.10,2013-06-23 18:33:00,
2013-06-23 14:48:00,85.2,75.0,29.98,SSE,158,1.0,2.0,71,0.00,,,0.02,weatherlink.com 1.10,2013-06-23 18:48:00,
2013-06-23 15:03:00,84.9,74.0,29.97,East,101,0.0,3.0,70,0.00,,,0.02,weatherlink.com 1.10,2013-06-23 19:03:00,
2013-06-23 15:18:00,84.0,74.0,29.97,SSE,167,0.0,2.0,72,0.00,,,0.02,weatherlink.com 1.10,2013-06-23 19:18:00,
2013-06-23 15:33:00,84.4,75.0,29.96,SSW,208,0.0,1.0,74,0.00,,,0.02,weatherlink.com 1.10,2013-06-23 19:33:00,
2013-06-23 15:48:00,85.4,74.0,29.95,South,169,1.0,5.0,69,0.00,,,0.02,weatherlink.com 1.10,2013-06-23 19:48:00,
2013-06-23 16:03:00,85.8,73.0,29.95,WSW,243,2.0,4.0,65,0.00,,,0.02,weatherlink.com 1.10,2013-06-23 20:03:00,
2013-06-23 16:18:00,85.5,73.0,29.94,South,170,0.0,5.0,66,0.00,,,0.02,weatherlink.com 1.10,2013-06-23 20:18:00,
2013-06-23 16:33:00,85.1,72.0,29.94,SE,136,0.0,4.0,65,0.00,,,0.02,weatherlink.com 1.10,2013-06-23 20:33:00,
2013-06-23 16:48:00,84.8,72.0,29.93,WSW,239,0.0,3.0,66,0.00,,,0.02,weatherlink.com 1.10,2013-06-23 20:48:00,
2013-06-23 17:03:00,84.2,73.0,29.93,SE,136,0.0,4.0,69,0.00,,,0.02,weatherlink.com 1.10,2013-06-23 21:03:00,
2013-06-23 17:18:00,84.1,74.0,29.92,SE,126,0.0,2.0,71,0.00,,,0.02,weatherlink.com 1.10,2013-06-23 21:18:00,
2013-06-23 17:33:00,82.9,73.0,29.92,SE,129,0.0,3.0,72,0.00,,,0.02,weatherlink.com 1.10,2013-06-23 21:33:00,
2013-06-23 17:48:00,82.2,73.0,29.91,SSE,151,0.0,5.0,74,0.00,,,0.02,weatherlink.com 1.10,2013-06-23 21:48:00,
2013-06-23 18:03:00,81.9,73.0,29.92,SSE,160,0.0,2.0,75,0.00,,,0.02,weatherlink.com 1.10,2013-06-23 22:03:00,
2013-06-23 18:18:00,81.5,73.0,29.94,SE,134,1.0,1.0,76,0.00,,,0.02,weatherlink.com 1.10,2013-06-23 22:18:00,
2013-06-23 18:33:00,81.7,74.0,29.94,SE,136,0.0,1.0,77,0.00,,,0.02,weatherlink.com 1.10,2013-06-23 22:33:00,
2013-06-23 18:48:00,80.8,74.0,29.93,SE,136,0.0,1.0,79,0.00,,,0.02,weatherlink.com 1.10,2013-06-23 22:48:00,
2013-06-23 19:04:00,79.6,73.0,29.93,SE,136,0.0,0.0,81,0.00,,,0.00,weatherlink.com 1.10,2013-06-23 23:04:00,
2013-06-23 19:19:00,79.1,73.0,29.93,South,173,0.0,0.0,81,0.00,,,0.00,weatherlink.com 1.10,2013-06-23 23:19:00,
2013-06-23 19:34:00,78.9,73.0,29.93,SW,221,0.0,0.0,81,0.00,,,0.00,weatherlink.com 1.10,2013-06-23 23:34:00,
2013-06-23 19:49:00,78.6,72.0,29.94,SW,221,0.0,0.0,81,0.00,,,0.00,weatherlink.com 1.10,2013-06-23 23:49:00,
2013-06-23 20:04:00,78.4,72.0,29.94,SW,221,0.0,0.0,80,0.00,,,0.00,weatherlink.com 1.10,2013-06-24 00:04:00,
2013-06-23 20:19:00,77.9,72.0,29.97,NE,50,1.0,3.0,81,0.00,,,0.00,weatherlink.com 1.10,2013-06-24 00:19:00,
2013-06-23 20:34:00,77.1,69.0,29.98,NE,50,1.0,3.0,77,0.00,,,0.00,weatherlink.com 1.10,2013-06-24 00:34:00,
2013-06-23 20:49:00,76.2,69.0,29.98,SW,219,0.0,1.0,77,0.00,,,0.00,weatherlink.com 1.10,2013-06-24 00:49:00,
2013-06-23 21:04:00,74.7,69.0,29.99,South,181,0.0,1.0,82,0.00,,,0.00,weatherlink.com 1.10,2013-06-24 01:04:00,
2013-06-23 21:19:00,72.5,70.0,29.98,South,183,0.0,0.0,90,0.01,,,0.01,weatherlink.com 1.10,2013-06-24 01:19:00,
2013-06-23 21:34:00,71.2,69.0,29.99,South,183,0.0,0.0,94,0.02,,,0.02,weatherlink.com 1.10,2013-06-24 01:34:00,
2013-06-23 21:49:00,70.6,70.0,29.98,South,183,0.0,0.0,96,0.03,,,0.03,weatherlink.com 1.10,2013-06-24 01:49:00,
2013-06-23 22:04:00,70.3,69.0,29.99,South,183,0.0,0.0,96,0.03,,,0.03,weatherlink.com 1.10,2013-06-24 02:04:00,
2013-06-23 22:19:00,70.0,69.0,29.98,South,183,0.0,0.0,97,0.02,,,0.03,weatherlink.com 1.10,2013-06-24 02:19:00,
2013-06-23 22:34:00,69.5,69.0,29.98,South,183,0.0,0.0,97,0.01,,,0.03,weatherlink.com 1.10,2013-06-24 02:34:00,
2013-06-23 22:49:00,69.2,69.0,29.98,South,183,0.0,0.0,98,0.00,,,0.03,weatherlink.com 1.10,2013-06-24 02:49:00,
2013-06-23 23:04:00,68.9,68.0,29.97,South,183,0.0,0.0,98,0.00,,,0.03,weatherlink.com 1.10,2013-06-24 03:04:00,
2013-06-23 23:19:00,68.8,68.0,29.97,South,183,0.0,0.0,98,0.00,,,0.03,weatherlink.com 1.10,2013-06-24 03:19:00,
2013-06-23 23:34:00,69.1,69.0,29.96,South,183,0.0,0.0,99,0.00,,,0.03,weatherlink.com 1.10,2013-06-24 03:34:00,
2013-06-23 23:49:00,69.4,69.0,29.96,South,183,0.0,0.0,99,0.00,,,0.03,weatherlink.com 1.10,2013-06-24 03:49:00,